User: anonymous   Login
Location: ??
(34.9170°N, 135.5016°E)
Time: 09:53:46
(UTC+00:00)
Language:

Cosmos 1023 Rocket - Orbit

View from above orbital plane
View from above orbital plane
View from above satellite
View from above satellite

Ground track
Ground track

The orbit data is extracted from the following two-line orbital elements,

1 10962U 78063B   21022.87264831  .00000013  00000-0  12310-4 0  9993
2 10962  74.0812 309.8336 0026309 235.0477 124.8208 14.41225445235223
Epoch (UTC): 22 January 2021 20:56:36
Eccentricity: 0.0026309
inclination: 74.0812°
perigee height: 735 km
apogee height: 773 km
right ascension of ascending node: 309.8336°
argument of perigee: 235.0477°
revolutions per day: 14.41225445
mean anomaly at epoch: 124.8208°
orbit number at epoch: 23522

The dashed part of the orbit path shows where the satellite is in the earth's shadow,  

DLR